This demonstration page uses our WeatherBlox Daily Observations layout. Learn more.

Left ArrowRight Arrow

39.29038, -76.61219

Hourly Observations for January 20, 2015

Temp ( °F °C ) Dew Point ( °F °C ) Humidity (%) Winds ( mph kmh ) Pressure ( in mb ) Visibility ( mi km ) Precip ( " mm )
12:54 am 00:54 undefined 34 1.1 24 -4.4 67 67 undefined N/A 29.95 1014 N/A 0.00 0.00
1:54 am 01:54 undefined 35 1.7 24 -4.4 64 64 undefined N/A 29.94 1014 N/A 0.00 0.00
2:54 am 02:54 undefined 32 0 25 -3.9 75 75 undefined N/A 29.94 1014 N/A 0.00 0.00
3:54 am 03:54 undefined 33 0.6 24 -4.4 70 70 undefined N/A 29.93 1013 N/A 0.00 0.00
4:54 am 04:54 undefined 32 0 25 -3.9 75 75 undefined N/A 29.92 1013 N/A 0.00 0.00
5:54 am 05:54 undefined 33 0.6 25 -3.9 72 72 undefined N/A 29.93 1014 N/A 0.00 0.00
6:54 am 06:54 undefined 34 1.1 25 -3.9 70 70 undefined N/A 29.95 1014 N/A 0.00 0.00
7:54 am 07:54 undefined 35 1.7 25 -3.9 67 67 undefined N/A 29.95 1014 N/A 0.00 0.00
8:54 am 08:54 undefined 38 3.3 26 -3.3 62 62 undefined N/A 29.97 1015 N/A 0.00 0.00
9:54 am 09:54 undefined 40 4.4 26 -3.3 58 58 undefined N/A 29.98 1015 N/A 0.00 0.00
10:54 am 10:54 undefined 42 5.6 25 -3.9 51 51 undefined N/A 29.98 1015 N/A 0.00 0.00
11:54 am 11:54 undefined 46 7.8 27 -2.8 47 47 undefined N/A 29.96 1015 N/A 0.00 0.00
12:54 pm 12:54 undefined 45 7.2 28 -2.2 52 52 undefined N/A 29.93 1013 N/A 0.00 0.00
1:54 pm 13:54 undefined 45 7.2 27 -2.8 49 49 undefined N/A 29.91 1013 N/A 0.00 0.00
2:54 pm 14:54 undefined 44 6.7 28 -2.2 53 53 undefined N/A 29.92 1013 N/A 0.00 0.00
3:54 pm 15:54 undefined 44 6.7 29 -1.7 55 55 undefined N/A 29.94 1014 N/A 0.00 0.00
4:54 pm 16:54 undefined 44 6.7 30 -1.1 58 58 undefined N/A 29.94 1014 N/A 0.00 0.00
5:54 pm 17:54 undefined 42 5.6 31 -0.6 65 65 undefined N/A 29.95 1014 N/A 0.00 0.00
6:54 pm 18:54 undefined 42 5.6 31 -0.6 65 65 undefined N/A 29.98 1015 N/A 0.00 0.00
7:54 pm 19:54 undefined 42 5.6 30 -1.1 62 62 undefined N/A 30.01 1016 N/A 0.00 0.00
8:54 pm 20:54 undefined 39 3.9 30 -1.1 70 70 undefined N/A 30.00 1016 N/A 0.00 0.00
9:54 pm 21:54 undefined 39 3.9 29 -1.7 67 67 undefined N/A 30.02 1017 N/A 0.00 0.00
10:54 pm 22:54 undefined 38 3.3 29 -1.7 70 70 undefined N/A 30.04 1017 N/A 0.00 0.00
11:54 pm 23:54 undefined 37 2.8 29 -1.7 73 73 undefined N/A 30.06 1018 N/A 0.00 0.00

Powered by AerisWeather